HUANJING 1B (HJ-1B)

Last updated on Wed Sep 17 2025 00:02:30 GMT+0000 (Coordinated Universal Time)

1 33321U 08041B 25259.59500317 .00001187 00000+0 15261-3 0 9992 2 33321 97.6357 255.4874 0037032 3.8904 356.2591 14.82472074917866
UTC large
Height (km)
Speed (km/s)
/
Latitude / Longitude
Inclination (degrees)
Orbital Period (minutes)
Azimuth
Elevation
Range (km)
Doppler Factor

Next 0 passes for location: London (51.5072 / 0.1276)

Sorry there are no passes over London.